Regional Weather Roundup
Issued by NWS Newport/Morehead, NC

Current Version | Previous Version | Text Only | Print | Product List | Glossary On
Versions: 1 2 3 4 5 6 7 8 9 10 11 12 13 14 15 16 17 18 19 20 21 22 23 24 25 26 27 28 29 30 31 32 33 34 35 36 37 38 39 40 41 42 43 44 45 46 47 48 49 50
823
ASUS42 KMHX 291213
RWRMHX
WEATHER ROUNDUP FOR EASTERN NORTH CAROLINA
NATIONAL WEATHER SERVICE NEWPORT/MOREHEAD CITY NC
800 AM EDT FRI JUL 29 2016

NOTE: "FAIR" INDICATES FEW OR NO CLOUDS BELOW 12,000 FEET
WITH NO SIGNIFICANT WEATHER AND/OR OBSTRUCTIONS TO VISIBILITY

NCZ015>017-031-032-045>047-102-103-291300-
NORTH COAST

CITY           SKY/WX    TMP DP  RH WIND       PRES   REMARKS
EDENTON        SUNNY     84  72  66 W12G18    29.87R
ELIZABETH CITY SUNNY     84  72  67 SW13G22   29.85R
KITTY HAWK     SUNNY     84  74  71 SW7       29.85R
MANTEO           N/A     82  76  81 W12       29.87R

$$

NCZ045>047-081-094-103-104-291300-
CENTRAL COAST

CITY           SKY/WX    TMP DP  RH WIND       PRES   REMARKS
FRISCO         SUNNY     82  77  84 SW9       29.89R

$$

NCZ095-097-098-100-101-291300-
SOUTHERN COAST

CITY           SKY/WX    TMP DP  RH WIND       PRES   REMARKS
BEAUFORT       SUNNY     83  78  85 SW13      29.91R
CEDAR ISLAND   NOT AVBL
JACKSONVILLE   SUNNY     82  74  76 SW10      29.90R
PINEY ISLAND   NOT AVBL
WILMINGTON     SUNNY     83  74  74 SW12      29.92S


$$

NCZ011>013-027>030-043-044-078>080-089-090>093-098-291300-
COASTAL PLAIN

CITY           SKY/WX    TMP DP  RH WIND       PRES   REMARKS
AHOSKIE        SUNNY     79  73  83 CALM      29.86R
CLINTON        SUNNY     79  74  86 SW5       29.90S
ELIZABETHTOWN  SUNNY     80  75  83 SW8       29.91S
GOLDSBORO      SUNNY     82  74  75 SW12      29.87R
GREENVILLE     SUNNY     81  73  78 SW8       29.90R HAZE
HAVELOCK       SUNNY     83  75  77 SW9       29.90S
KENANSVILLE    NOT AVBL
KINSTON        SUNNY     82  73  74 SW6       29.89R
NEW BERN       SUNNY     82  74  76 W8        29.90S
RICHLANDS      SUNNY     82  76  81 SW6       29.91R
ROCKY MOUNT    SUNNY     80  73  79 SW7       29.87R
WASHINGTON     SUNNY     81  74  81 SW10      29.88R
WHITEVILLE     SUNNY     81  74  81 SW6       29.93R

$$

AMZ130-135-150-152-154-156-158-170-250-252-270-ANZ085-086-088-633-658-670-291300-
MARINE OBSERVATIONS

STATION/POSITION TIME  TEMP    WIND        PRES    WAVE   SWELL
                       AIR SEA DIR/SP/G            HT/PER HT/PER
                 (UTC) (F)     (DEG/KT/KT) (MB)    (FT/S) (FT/S)
CHESAPEAKE LIGHT NOT AVBL
64 E VA BEACH    1150   83 82  220/ 14/ 16 1009.9    3/ 4   2/ 8
DUCK             1100   83 66  230/ 14/ 19 1009.9
2 E DUCK         1111      72                N/A     1/ 7
OREGON INLET     1100   83 84  230/ 14/ 18 1010.9
13E OREGON INLT  1100      80                N/A     3/ 6   2/ 6
HATTERAS CG      1100   81 83  230/  8/ 11 1011.6
DIAMOND BUOY     1150   84 85  240/ 16/ 19 1012.2    4/ 6   2/ 8
CAPE LOOKOUT     1200   84     250/ 12/ 16 1012.6
BEAUFORT LAB     1100   82 83  240/  5/  9 1011.8
30 SE NEW RVR IN 1108   84 85  250/ 17/ 21 1012.8
30 SE NEW RVR IN 1125      85                N/A     5/ 6
27 SE WRIGHTSVLE 1108   84 84  240/ 16/ 19 1014.3
5 SE WRIGHTSVLE  NOT AVBL
225 S CAPE HAT   1150   84 84  240/  8/ 10 1016.2    3/ 6   3/ 6
41 SE CHARLESTON 1150   86 85  260/ 16/ 17 1014.6    4/ 6   2/19

$$




USA.gov is the U.S. government's official web portal to all federal, state and local government web resources and services.